| time (UTC) | temp C | wind direction | speed KPH | gust KPH | rain 1hr cm | rain 24hr cm | rain mn cm | humidity % | barometer mb |
| 20260504081516 | 10 | 113 | 0.0 | 3.2 | 0.00 | 0.00 | 0.00 | 51 | 998.9 |
| 20260504050017 | 9 | 55 | 1.6 | 4.8 | 0.00 | 0.00 | 0.00 | 53 | 999.4 |
| 20260504044517 | 9 | 46 | 1.6 | 4.8 | 0.00 | 0.00 | 0.00 | 52 | 999.3 |
| 20260504043017 | 9 | 63 | 1.6 | 4.8 | 0.00 | 0.00 | 0.00 | 53 | 999.3 |
| 20260504041517 | 8 | 34 | 1.6 | 4.8 | 0.00 | 0.00 | 0.00 | 55 | 999.2 |
| 20260504040017 | 7 | 58 | 0.0 | 3.2 | 0.00 | 0.00 | 0.00 | 58 | 999.0 |
| 20260504034516 | 7 | 58 | 0.0 | 1.6 | 0.00 | 0.00 | 0.00 | 59 | 998.9 |
| 20260504033016 | 8 | 44 | 0.0 | 0.0 | 0.00 | 0.00 | 0.00 | 57 | 998.8 |
| 20260504031516 | 8 | 44 | 0.0 | 1.6 | 0.00 | 0.00 | 0.00 | 54 | 998.7 |
| 20260504030040 | 9 | 0.0 | 0.0 | 0.00 | 0.00 | 0.00 | 52 | 998.7 | |
| 20260504024517 | 9 | 44 | 0.0 | 0.0 | 0.00 | 0.00 | 0.00 | 53 | 998.7 |
| 20260504023017 | 9 | 45 | 0.0 | 1.6 | 0.00 | 0.00 | 0.00 | 53 | 998.7 |
| 20260504021521 | 9 | 44 | 0.0 | 0.0 | 0.00 | 0.00 | 0.00 | 53 | 998.5 |
| 20260504020017 | 9 | 50 | 0.0 | 0.0 | 0.00 | 0.00 | 0.00 | 53 | 998.5 |
| 20260504014517 | 9 | 179 | 0.0 | 1.6 | 0.00 | 0.00 | 0.00 | 53 | 998.4 |
| 20260504013017 | 9 | 46 | 0.0 | 1.6 | 0.00 | 0.00 | 0.00 | 53 | 998.3 |
| 20260504011519 | 10 | 44 | 0.0 | 0.0 | 0.00 | 0.00 | 0.00 | 52 | 998.2 |
| 20260504010017 | 10 | 0.0 | 0.0 | 0.00 | 0.00 | 0.00 | 50 | 998.1 | |
| 20260504004537 | 10 | 0.0 | 0.0 | 0.00 | 0.00 | 0.00 | 48 | 998.0 | |
| 20260504003037 | 11 | 268 | 0.0 | 0.0 | 0.00 | 0.00 | 0.00 | 46 | 997.8 |
| 20260504001517 | 12 | 291 | 0.0 | 0.0 | 0.00 | 0.00 | 0.00 | 43 | 997.7 |
| 20260504000017 | 12 | 313 | 0.0 | 0.0 | 0.00 | 0.00 | 0.00 | 41 | 997.5 |
| 20260503234517 | 13 | 85 | 0.0 | 1.6 | 0.00 | 0.00 | 0.00 | 40 | 997.4 |
| 20260503233017 | 13 | 55 | 0.0 | 6.4 | 0.00 | 0.00 | 0.00 | 39 | 997.3 |
| 20260503231516 | 13 | 35 | 0.0 | 3.2 | 0.00 | 0.00 | 0.00 | 38 | 997.0 |
| 20260503230016 | 14 | 355 | 1.6 | 6.4 | 0.00 | 0.00 | 0.00 | 37 | 997.0 |
| 20260503224516 | 14 | 52 | 1.6 | 11.3 | 0.00 | 0.00 | 0.00 | 37 | 997.0 |
| 20260503223016 | 15 | 31 | 1.6 | 9.7 | 0.00 | 0.00 | 0.00 | 36 | 997.0 |
| 20260503221517 | 15 | 34 | 1.6 | 8.0 | 0.00 | 0.00 | 0.00 | 36 | 997.1 |
| 20260503220017 | 15 | 27 | 1.6 | 6.4 | 0.00 | 0.00 | 0.00 | 35 | 997.1 |
| 20260503214517 | 16 | 27 | 1.6 | 11.3 | 0.00 | 0.00 | 0.00 | 35 | 997.2 |
| 20260503213037 | 16 | 58 | 1.6 | 6.4 | 0.00 | 0.00 | 0.00 | 34 | 997.2 |
| 20260503211517 | 16 | 2 | 1.6 | 8.0 | 0.00 | 0.00 | 0.00 | 34 | 997.1 |
| 20260503210017 | 16 | 15 | 1.6 | 9.7 | 0.00 | 0.00 | 0.00 | 34 | 997.2 |
| 20260503204517 | 16 | 19 | 3.2 | 9.7 | 0.00 | 0.00 | 0.00 | 35 | 997.2 |
| 20260503203057 | 15 | 5 | 3.2 | 14.5 | 0.00 | 0.00 | 0.00 | 35 | 997.4 |
| 20260503201537 | 15 | 12 | 1.6 | 11.3 | 0.00 | 0.00 | 0.00 | 36 | 997.6 |
| 20260503200017 | 15 | 2 | 3.2 | 9.7 | 0.00 | 0.00 | 0.00 | 35 | 997.7 |
| 20260503194517 | 15 | 7 | 3.2 | 6.4 | 0.00 | 0.00 | 0.00 | 36 | 997.9 |
| 20260503193018 | 15 | 30 | 3.2 | 9.7 | 0.00 | 0.00 | 0.00 | 36 | 998.1 |
| 20260503191519 | 15 | 31 | 3.2 | 11.3 | 0.00 | 0.00 | 0.00 | 37 | 998.3 |
| 20260503190018 | 15 | 19 | 3.2 | 11.3 | 0.00 | 0.00 | 0.00 | 39 | 998.4 |
| 20260503184518 | 15 | 15 | 3.2 | 11.3 | 0.00 | 0.00 | 0.00 | 39 | 998.6 |
| 20260503183017 | 14 | 12 | 3.2 | 9.7 | 0.00 | 0.00 | 0.00 | 43 | 998.8 |
| 20260503181558 | 14 | 2 | 3.2 | 9.7 | 0.00 | 0.00 | 0.00 | 41 | 998.9 |
| 20260503180016 | 15 | 40 | 3.2 | 8.0 | 0.00 | 0.00 | 0.00 | 43 | 999.0 |
| 20260503174516 | 14 | 40 | 3.2 | 8.0 | 0.00 | 0.00 | 0.00 | 44 | 999.0 |
| 20260503173036 | 13 | 9 | 3.2 | 11.3 | 0.00 | 0.00 | 0.00 | 45 | 999.1 |
| 20260503171516 | 14 | 348 | 3.2 | 8.0 | 0.00 | 0.00 | 0.00 | 44 | 999.2 |